[[{"header":{"parameterUnit":"m.s-1","parameterCategory":1,"la1":30.2991,"la2":30.254,"lo1":-89.0895,"lo2":-89.0444,"dy":0.0017,"dx":0.0017,"nx":28,"ny":28,"refTime":"2025-12-16T03:00:00:Z","depth":0,"parameterNumber":2,"parameterNumberName":"U-component_of_WINDS"},"data":[0,0,0,0,0,0,0,0,0,0,0,0,0,0,0,0,0,0,0,0,0,0,0,0,0,0,0,0,0,0,0,0,0,0,0,0,0,0,0,0,0,0,0,0,0,0,0,0,0,0,0,0,0,0,0,0,0,0,-3.1445,-3.1445,0,-3.1392,-3.1392,-3.1391,-3.1296,-3.1294,-3.1293,-3.1291,-3.1239,-3.124,-3.124,0,0,0,0,0,0,0,0,0,0,0,0,0,-3.1468,-3.1468,-3.1446,-3.1445,-3.1444,-3.1392,-3.1392,-3.1391,-3.1296,-3.1294,-3.1292,-3.129,-3.1239,-3.124,-3.124,0,0,0,0,0,0,0,0,0,0,0,0,0,-3.1441,-3.1468,-3.1446,-3.1391,-3.1385,-3.1393,-3.1392,-3.1391,-3.1297,-3.1294,-3.1291,-3.1289,-3.1239,-3.124,-3.124,-3.1298,0,0,-3.1242,-3.1242,0,0,0,0,0,0,0,0,-3.1443,-3.1441,-3.1399,-3.1395,-3.1388,-3.1348,-3.1381,-3.136,-3.1298,-3.1331,-3.1291,-3.1288,-3.1278,-3.1275,-3.1271,-3.1295,-3.1293,-3.1242,-3.1242,-3.1242,-3.1242,0,0,0,0,0,0,0,-3.1445,-3.1442,-3.1424,-3.1399,-3.1392,-3.137,-3.1363,-3.1376,-3.132,-3.1327,-3.132,-3.1315,-3.1274,-3.1271,-3.1269,-3.1292,-3.1242,-3.1242,-3.1242,-3.1243,-3.136,-3.1363,0,0,0,0,0,0,-3.1454,-3.1444,-3.1426,-3.1423,-3.1409,-3.1372,-3.1364,-3.1364,-3.132,-3.131,-3.1318,-3.1311,-3.1271,-3.1269,-3.1267,-3.133,-3.1242,-3.1243,-3.1243,-3.1357,-3.1361,-3.1364,0,0,0,0,0,0,-3.1455,-3.1454,-3.1428,-3.1432,-3.1427,-3.1374,-3.1375,-3.1364,-3.136,-3.1312,-3.1302,-3.1324,-3.1269,-3.1266,-3.129,-3.1327,-3.1243,-3.1243,-3.1354,-3.1358,-3.1362,-3.1457,0,0,0,0,0,0,-3.1456,-3.1455,-3.1475,-3.1433,-3.1427,-3.1452,-3.1377,-3.1365,-3.1361,-3.1352,-3.1316,-3.1307,-3.1267,-3.129,-3.1291,-3.1326,-3.1244,-3.135,-3.1356,-3.1361,-3.1451,-3.1464,-3.1476,0,0,0,0,0,-3.1457,-3.1505,-3.1476,-3.1475,-3.1451,-3.1454,-3.1451,-3.1402,-3.1365,-3.1385,-3.1354,-3.1308,-3.1324,-3.1293,-3.1293,-3.1329,-3.1348,-3.1354,-3.1361,-3.1445,-3.1462,-3.1476,0,0,0,0,0,0,-3.1553,-3.1498,-3.1466,-3.1501,-3.1483,-3.1438,-3.1462,-3.1422,-3.1415,-3.1406,-3.1348,-3.1341,-3.1372,-3.1354,-3.1321,-3.1382,-3.1328,-3.1335,-3.1393,-3.1408,-3.1421,-3.1423,-3.1244,0,0,0,0,0,-3.1579,-3.1584,-3.1536,-3.1572,-3.1564,-3.1515,-3.1515,-3.1479,-3.1458,-3.145,-3.1421,-3.1403,-3.1404,-3.1406,-3.1404,-3.1449,-3.1439,-3.1474,-3.1486,-3.1497,-3.1503,-3.1524,-3.1538,-3.1385,-3.1385,-3.1385,0,0,-3.1631,-3.1601,-3.1609,-3.159,-3.1572,-3.158,-3.1509,-3.1521,-3.1526,-3.1452,-3.1472,-3.1451,-3.1427,-3.1462,-3.1475,-3.1447,-3.1543,-3.1505,-3.1514,-3.1514,-3.1532,-3.1547,-3.156,-3.1389,-3.1388,-3.1388,0,0,-3.1729,-3.1708,-3.1734,-3.1717,-3.169,-3.1657,-3.1664,-3.1625,-3.1608,-3.1627,-3.1571,-3.1578,-3.158,-3.1565,-3.1558,-3.1652,-3.1609,-3.1654,-3.1719,-3.174,-3.1752,-3.1763,-3.1795,-3.1807,-3.166,-3.166,-3.166,0,-3.1797,-3.1805,-3.1753,-3.1768,-3.1761,-3.1695,-3.1721,-3.1708,-3.1682,-3.1679,-3.1648,-3.165,-3.1629,-3.1659,-3.1682,-3.1679,-3.1684,-3.1656,-3.1755,-3.1765,-3.1774,-3.1803,-3.1816,-3.1666,-3.1665,-3.1664,-3.1664,0,-3.189,-3.1897,-3.1922,-3.1897,-3.1894,-3.1915,-3.1866,-3.187,-3.1836,-3.1806,-3.1827,-3.18,-3.1791,-3.1796,-3.1763,-3.1821,-3.1804,-3.1765,-3.1709,-3.1795,-3.1821,-3.1832,-3.1673,-3.1671,-3.167,-3.1668,0,0,-3.2044,-3.1991,-3.2001,-3.1988,-3.1954,-3.1959,-3.1978,-3.1968,-3.1971,-3.1957,-3.197,-3.1974,-3.1938,-3.193,-3.1895,-3.1914,-3.1988,-3.1872,-3.1871,-3.1893,-3.2049,-3.2077,-3.2091,-3.1961,-3.1963,-3.1965,-3.205,0,-3.2133,-3.2159,-3.2114,-3.2151,-3.2156,-3.2094,-3.211,-3.2092,-3.2066,-3.2067,-3.2039,-3.2042,-3.1994,-3.1989,-3.2006,-3.1976,-3.2019,-3.197,-3.1972,-3.1973,-3.1977,-3.2105,-3.2134,-3.2216,-3.2061,-3.2062,-3.2064,0,-3.2239,-3.2228,-3.2266,-3.2229,-3.223,-3.2245,-3.2232,-3.2235,-3.2213,-3.2192,-3.2184,-3.2143,-3.2159,-3.2107,-3.2128,-3.2096,-3.2095,-3.2081,-3.2083,-3.2079,-3.2021,-3.2102,-3.2241,-3.2252,-3.208,-3.2079,-3.2078,0,-3.2346,-3.2341,-3.2362,-3.2354,-3.2312,-3.2324,-3.2308,-3.2283,-3.228,-3.227,-3.2267,-3.226,-3.2255,-3.2251,-3.2209,-3.2175,-3.2235,-3.218,-3.2218,-3.2219,-3.2231,-3.223,-3.2369,-3.2235,-3.2235,-3.2235,-3.2234,0,-3.2448,-3.2473,-3.2409,-3.2422,-3.2448,-3.2397,-3.2425,-3.2402,-3.2381,-3.2389,-3.2336,-3.2345,-3.229,-3.2294,-3.2262,-3.2283,-3.2283,-3.2266,-3.2257,-3.2269,-3.2271,-3.2266,-3.2258,-3.2238,-3.2237,-3.2237,-3.2236,0,-3.2569,-3.2528,-3.2547,-3.2506,-3.2496,-3.2517,-3.2483,-3.2493,-3.2465,-3.2475,-3.2475,-3.243,-3.2431,-3.239,-3.2383,-3.2361,-3.2396,-3.2378,-3.2403,-3.2396,-3.2436,-3.2432,-3.2573,-3.2589,-3.2448,-3.245,-3.2451,0,-3.2636,-3.2653,-3.2614,-3.2615,-3.2601,-3.2603,-3.26,-3.2551,-3.255,-3.2526,-3.254,-3.2537,-3.2531,-3.2536,-3.2503,-3.2498,-3.2477,-3.2528,-3.2476,-3.2488,-3.2475,-3.2473,-3.2474,-3.2538,-3.2539,-3.2541,-3.2542,0,-3.2757,-3.2736,-3.2732,-3.2722,-3.2719,-3.2709,-3.2695,-3.2699,-3.2646,-3.2647,-3.2647,-3.2643,-3.2636,-3.2633,-3.2621,-3.2605,-3.2565,-3.2559,-3.2567,-3.2578,-3.2591,-3.2582,-3.243,-3.2555,-3.2554,-3.2553,-3.2552,-3.2552,-3.2851,-3.2863,-3.2837,-3.2835,-3.282,-3.2809,-3.2816,-3.2788,-3.2787,-3.2776,-3.2748,-3.2753,-3.2731,-3.2711,-3.2699,-3.2702,-3.2677,-3.269,-3.2692,-3.2695,-3.2701,-3.2593,-3.27,-3.27,-3.27,-3.2699,-3.2699,0,-3.2967,-3.2948,-3.2947,-3.2929,-3.2927,-3.289,-3.2873,-3.2874,-3.2878,-3.2861,-3.2857,-3.2857,-3.2854,-3.2822,-3.2815,-3.2824,-3.2806,-3.2824,-3.2821,-3.2818,-3.2725,-3.2718,-3.2839,-3.2839,-3.2839,-3.2839,-3.2839,-3.2839,-3.3028,-3.3046,-3.3022,-3.3032,-3.3013,-3.3016,-3.3009,-3.2999,-3.2984,-3.2986,-3.2983,-3.2962,-3.2939,-3.2931,-3.2927,-3.2917,-3.2916,-3.2941,-3.2925,-3.2838,-3.2825,-3.2812,-3.2804,-3.2942,-3.2942,-3.3017,-3.3018,-3.3018]},{"header":{"parameterUnit":"m.s-1","parameterCategory":1,"la1":30.2991,"la2":30.254,"lo1":-89.0895,"lo2":-89.0444,"dy":0.0017,"dx":0.0017,"nx":28,"ny":28,"refTime":"2025-12-16T03:00:00:Z","depth":0,"parameterNumber":3,"parameterNumberName":"V-component_of_WINDS"},"data":[0,0,0,0,0,0,0,0,0,0,0,0,0,0,0,0,0,0,0,0,0,0,0,0,0,0,0,0,0,0,0,0,0,0,0,0,0,0,0,0,0,0,0,0,0,0,0,0,0,0,0,0,0,0,0,0,0,0,0.5974,0.5975,0,0.6008,0.6008,0.6009,0.606,0.6061,0.6062,0.6063,0.6093,0.6092,0.6092,0,0,0,0,0,0,0,0,0,0,0,0,0,0.5953,0.5953,0.5974,0.5975,0.5975,0.6008,0.6008,0.6009,0.606,0.6061,0.6062,0.6063,0.6093,0.6092,0.6092,0,0,0,0,0,0,0,0,0,0,0,0,0,0.5972,0.5953,0.5974,0.6005,0.6008,0.6008,0.6008,0.6009,0.606,0.6061,0.6062,0.6064,0.6093,0.6092,0.6092,0.6064,0,0,0.6092,0.6092,0,0,0,0,0,0,0,0,0.5971,0.5973,0.6,0.6003,0.6006,0.6031,0.6012,0.6027,0.6059,0.604,0.6063,0.6064,0.6071,0.6072,0.6076,0.6065,0.6066,0.6092,0.6092,0.6092,0.6092,0,0,0,0,0,0,0,0.597,0.5972,0.5988,0.6,0.6004,0.6016,0.6021,0.6015,0.6047,0.6042,0.6046,0.6049,0.6073,0.6076,0.6077,0.6067,0.6092,0.6092,0.6092,0.6092,0.6037,0.6036,0,0,0,0,0,0,0.5964,0.597,0.5987,0.5989,0.5992,0.6016,0.602,0.6022,0.6047,0.6052,0.6048,0.6051,0.6075,0.6077,0.6078,0.6048,0.6092,0.6092,0.6092,0.6039,0.6037,0.6035,0,0,0,0,0,0,0.5963,0.5965,0.5985,0.5981,0.5984,0.6015,0.6016,0.6022,0.6025,0.6052,0.6057,0.6045,0.6076,0.6078,0.6068,0.605,0.6092,0.6092,0.604,0.6038,0.6036,0.5986,0,0,0,0,0,0,0.5963,0.5965,0.5954,0.598,0.5984,0.5975,0.6015,0.6021,0.6025,0.603,0.6051,0.6055,0.6077,0.6068,0.6068,0.605,0.6091,0.6042,0.6039,0.6037,0.599,0.5983,0.5977,0,0,0,0,0,0.5962,0.5937,0.5953,0.5955,0.5972,0.5974,0.5976,0.6003,0.6023,0.6013,0.6031,0.6055,0.6052,0.6066,0.6067,0.6049,0.6043,0.604,0.6037,0.5993,0.5984,0.5977,0,0,0,0,0,0,0.5906,0.5941,0.5959,0.5943,0.5955,0.5982,0.597,0.5993,0.5999,0.6003,0.6035,0.6039,0.6025,0.6036,0.6052,0.6024,0.6051,0.6048,0.6017,0.601,0.6003,0.6001,0.6091,0,0,0,0,0,0.5892,0.5892,0.5922,0.5904,0.591,0.5939,0.5941,0.5961,0.5975,0.598,0.5997,0.6008,0.601,0.601,0.6013,0.5992,0.5998,0.598,0.5973,0.5968,0.5965,0.5957,0.595,0.6025,0.6025,0.6025,0,0,0.5863,0.5882,0.5879,0.5894,0.5906,0.5905,0.5943,0.5939,0.5939,0.5978,0.5971,0.5984,0.5999,0.5984,0.5977,0.5992,0.5946,0.5964,0.596,0.596,0.5953,0.5946,0.5939,0.6023,0.6024,0.6024,0,0,0.5809,0.5823,0.5812,0.5824,0.5843,0.5863,0.586,0.5884,0.5895,0.5889,0.592,0.5919,0.5921,0.5931,0.5936,0.589,0.5913,0.589,0.5856,0.5848,0.5842,0.5837,0.5822,0.5816,0.5887,0.5886,0.5886,0,0.577,0.5771,0.5802,0.5798,0.5804,0.5842,0.5831,0.5841,0.5858,0.5862,0.5878,0.5884,0.5896,0.5885,0.5874,0.5876,0.5875,0.5887,0.584,0.5836,0.5831,0.5817,0.5811,0.5884,0.5884,0.5884,0.5884,0,0.5722,0.5722,0.571,0.573,0.5734,0.5726,0.5756,0.5757,0.5777,0.5796,0.5789,0.5806,0.5815,0.5813,0.5832,0.5805,0.5814,0.5835,0.5863,0.5821,0.5808,0.5803,0.588,0.5881,0.5881,0.5882,0,0,0.5633,0.5673,0.5668,0.5678,0.5703,0.5703,0.5697,0.5707,0.5708,0.572,0.5716,0.5718,0.5739,0.5745,0.5765,0.5758,0.5722,0.578,0.5781,0.577,0.5696,0.5681,0.5674,0.5738,0.5737,0.5736,0.5696,0,0.5585,0.5579,0.5609,0.5594,0.5595,0.5633,0.5628,0.5643,0.566,0.5664,0.5682,0.5684,0.571,0.5715,0.5709,0.5728,0.5708,0.5731,0.5735,0.5735,0.5731,0.5668,0.5651,0.5612,0.5691,0.569,0.5689,0,0.5528,0.554,0.5526,0.5555,0.5556,0.5551,0.5565,0.5567,0.5585,0.5598,0.5607,0.5631,0.5628,0.5655,0.5651,0.5666,0.5669,0.5679,0.5678,0.568,0.571,0.5669,0.56,0.5594,0.5681,0.5682,0.5683,0,0.5467,0.5479,0.5473,0.548,0.5513,0.5509,0.5522,0.5541,0.5547,0.5558,0.5562,0.5571,0.5577,0.5583,0.561,0.5627,0.5604,0.5632,0.5615,0.5614,0.5608,0.5608,0.554,0.5608,0.5609,0.5609,0.5609,0,0.5411,0.5401,0.5446,0.5443,0.5434,0.5468,0.5458,0.5474,0.5492,0.5492,0.5525,0.5524,0.5559,0.5563,0.5583,0.5578,0.5579,0.559,0.5596,0.5588,0.5587,0.5591,0.5595,0.5607,0.5607,0.5608,0.5608,0,0.5341,0.537,0.5367,0.5399,0.5407,0.5399,0.5426,0.5424,0.5445,0.5445,0.5447,0.5478,0.5484,0.5512,0.5523,0.5538,0.5525,0.5536,0.552,0.5524,0.5505,0.5507,0.5438,0.5431,0.5503,0.5502,0.5501,0,0.5303,0.5298,0.533,0.5334,0.5346,0.5351,0.5357,0.5391,0.5396,0.5418,0.5413,0.5422,0.5432,0.5439,0.5463,0.5472,0.5484,0.5459,0.5486,0.5479,0.5486,0.5486,0.5486,0.5454,0.5453,0.5452,0.5451,0,0.5235,0.5251,0.5259,0.5274,0.5281,0.5294,0.5308,0.5309,0.5346,0.535,0.5358,0.5365,0.5379,0.5388,0.5402,0.5415,0.544,0.5443,0.544,0.5432,0.5423,0.5429,0.5506,0.5444,0.5445,0.5445,0.5446,0.5446,0.5181,0.5179,0.5202,0.5211,0.5226,0.524,0.5241,0.5262,0.527,0.5285,0.5304,0.531,0.533,0.5352,0.5363,0.5368,0.5381,0.5376,0.5375,0.5373,0.537,0.5422,0.537,0.537,0.537,0.5371,0.5371,0,0.5116,0.5134,0.5142,0.5162,0.517,0.5194,0.5212,0.5217,0.5222,0.5239,0.5248,0.5258,0.5268,0.5293,0.5305,0.5304,0.5316,0.5306,0.5307,0.531,0.5356,0.5359,0.5297,0.5297,0.5297,0.5297,0.5297,0.5297,0.5083,0.5081,0.51,0.5106,0.5124,0.5131,0.5139,0.5152,0.5167,0.5177,0.5186,0.5203,0.5224,0.5238,0.5248,0.5255,0.5258,0.5245,0.5256,0.5299,0.5306,0.5313,0.5316,0.5246,0.5245,0.521,0.5209,0.5209]}]]